Starlink 5156

operational
NORAD ID: 53973 Int'l Des: 2022-125 Owner: SPXS Country: US Constellation: starlink
LEOCIRCULAR

About Starlink 5156

Description loading...

Live Position

Loading 3D Globe...

Upcoming Passes

Altitude History

Altitude vs Time

uPlot chart will show altitude changes over time

Two-Line Element Set

1 53973U 22125K 25303.12926957 -.00000052 00000-0 14817-4 0 9996
2 53973 53.2170 90.1079 0001369 87.6481 272.4668 15.08839070169615
Epoch: Oct 30, 2025 • Age: 14 hours

Current Status

Altitude 544.6 km
Velocity 7.59 km/s
Sub-Earth Point -16.62°S, 135.58°E
Launch Date Oct 5, 2022
Age 3 years
Type internet

Technical Details

Classification Payload
Mass 305.00 kg
Dry Mass 290.00 kg
Total Mass 305.00 kg
Length 0.20 m
Diameter 2.80 m
Span 9.00 m
Shape Box + pan
Manufacturer SPXS
Bus Type Starlink
Phase Status In Orbit
Owner/State SPXS/US

Large Constellations

Loading constellations...